• In Russia
  • List of Countries
  • For 7 days
  • Water Temperature
  • Satellite Maps
  • Weather Map
  • Weather Widgets
  • user-avatar
    Login

    Hourly Weather Santa Fe

    Today, 11 December, Monday

    Time Temperature Precipitation Wind Pressure Humidity
    00:00 +25°C° 0 mm 5 mps 757 mmHg 33%
    01:00 +23°C° 0 mm 5 mps 758 mmHg 34%
    02:00 +22°C° 0 mm 5 mps 758 mmHg 36%
    03:00 +20°C° 0 mm 4 mps 758 mmHg 38%
    04:00 +19°C° 0 mm 4 mps 759 mmHg 39%
    05:00 +18°C° 0 mm 4 mps 759 mmHg 41%
    06:00 +19°C° 0 mm 4 mps 760 mmHg 37%
    07:00 +21°C° 0 mm 4 mps 760 mmHg 34%
    08:00 +23°C° 0 mm 4 mps 760 mmHg 30%
    09:00 +26°C° 0 mm 4 mps 760 mmHg 25%
    10:00 +28°C° 0 mm 4 mps 760 mmHg 19%
    11:00 +30°C° 0 mm 3 mps 759 mmHg 14%
    12:00 +33°C° 0 mm 3 mps 759 mmHg 12%
    13:00 +34°C° 0 mm 3 mps 758 mmHg 11%
    14:00 +36°C° 0 mm 3 mps 757 mmHg 10%
    15:00 +35°C° 0 mm 3 mps 757 mmHg 10%
    16:00 +35°C° 0 mm 3 mps 756 mmHg 11%
    17:00 +35°C° 0 mm 3 mps 756 mmHg 11%
    18:00 +33°C° 0 mm 4 mps 756 mmHg 16%
    19:00 +29°C° 0 mm 4 mps 756 mmHg 20%
    20:00 +26°C° 0 mm 4 mps 756 mmHg 25%
    21:00 +26°C° 0 mm 4 mps 757 mmHg 29%
    22:00 +25°C° 0 mm 4 mps 757 mmHg 32%
    23:00 +23°C° 0 mm 4 mps 757 mmHg 36%

    Tomorrow, 12 December, Tuesday

    Time Temperature Precipitation Wind Pressure Humidity
    00:00 +22°C° 0 mm 4 mps 757 mmHg 40%
    01:00 +21°C° 0 mm 4 mps 757 mmHg 43%
    02:00 +20°C° 0 mm 3 mps 757 mmHg 46%
    03:00 +19°C° 0 mm 3 mps 757 mmHg 51%
    04:00 +19°C° 0 mm 4 mps 757 mmHg 55%
    05:00 +19°C° 0 mm 4 mps 758 mmHg 60%
    06:00 +21°C° 0 mm 4 mps 758 mmHg 55%
    07:00 +23°C° 0 mm 5 mps 758 mmHg 50%
    08:00 +26°C° 0 mm 5 mps 758 mmHg 44%
    09:00 +29°C° 0 mm 5 mps 758 mmHg 37%
    10:00 +33°C° 0 mm 4 mps 757 mmHg 29%
    11:00 +35°C° 0 mm 4 mps 757 mmHg 21%
    12:00 +37°C° 0 mm 4 mps 756 mmHg 19%
    13:00 +38°C° 0 mm 3 mps 756 mmHg 16%
    14:00 +39°C° 0 mm 3 mps 755 mmHg 14%
    15:00 +39°C° 0 mm 3 mps 754 mmHg 14%
    16:00 +39°C° 0 mm 3 mps 753 mmHg 13%
    17:00 +39°C° 0 mm 3 mps 753 mmHg 13%
    18:00 +36°C° 0 mm 3 mps 753 mmHg 16%
    19:00 +33°C° 0 mm 3 mps 753 mmHg 20%
    20:00 +30°C° 0 mm 3 mps 753 mmHg 23%
    21:00 +29°C° 0 mm 3 mps 754 mmHg 26%
    22:00 +28°C° 0 mm 4 mps 754 mmHg 29%
    23:00 +27°C° 0 mm 4 mps 755 mmHg 31%

    Day after tomorrow, 13 December, Wednesday

    Time Temperature Precipitation Wind Pressure Humidity
    00:00 +26°C° 0 mm 4 mps 754 mmHg 35%
    01:00 +25°C° 0 mm 4 mps 754 mmHg 38%
    02:00 +25°C° 0 mm 3 mps 754 mmHg 41%
    03:00 +23°C° 0 mm 4 mps 754 mmHg 43%
    04:00 +23°C° 0 mm 4 mps 754 mmHg 45%
    05:00 +22°C° 0 mm 4 mps 754 mmHg 47%
    06:00 +26°C° 0 mm 4 mps 755 mmHg 43%
    07:00 +29°C° 0 mm 5 mps 755 mmHg 38%
    08:00 +33°C° 0 mm 5 mps 755 mmHg 33%
    09:00 +36°C° 0 mm 5 mps 755 mmHg 28%
    10:00 +40°C° 0 mm 5 mps 754 mmHg 23%
    11:00 +43°C° 0 mm 5 mps 754 mmHg 18%
    12:00 +45°C° 0 mm 5 mps 753 mmHg 17%
    13:00 +45°C° 0 mm 4 mps 753 mmHg 15%
    14:00 +47°C° 0 mm 4 mps 752 mmHg 14%
    15:00 +45°C° 0 mm 3 mps 752 mmHg 15%
    16:00 +43°C° 0 mm 2 mps 751 mmHg 15%
    17:00 +43°C° 0 mm 2 mps 751 mmHg 16%
    18:00 +40°C° 0 mm 3 mps 752 mmHg 20%
    19:00 +38°C° 0 mm 4 mps 752 mmHg 24%
    20:00 +35°C° 0 mm 6 mps 753 mmHg 28%
    21:00 +32°C° 0.3 mm 5 mps 754 mmHg 42%
    22:00 +28°C° 0.3 mm 5 mps 755 mmHg 56%
    23:00 +25°C° 0.3 mm 5 mps 756 mmHg 69%

    14 December, Thursday

    Time Temperature Precipitation Wind Pressure Humidity
    00:00 +23°C° 1.2 mm 4 mps 756 mmHg 76%
    01:00 +22°C° 1.2 mm 4 mps 756 mmHg 83%
    02:00 +21°C° 1.2 mm 4 mps 757 mmHg 90%
    03:00 +21°C° 1.1 mm 3 mps 757 mmHg 91%
    04:00 +21°C° 1.1 mm 2 mps 757 mmHg 91%
    05:00 +22°C° 1.1 mm 1 mps 757 mmHg 91%
    06:00 +24°C° 0.2 mm 1 mps 758 mmHg 83%
    07:00 +26°C° 0.2 mm 1 mps 758 mmHg 75%
    08:00 +28°C° 0.2 mm 1 mps 758 mmHg 67%
    09:00 +31°C° 0 mm 1 mps 758 mmHg 56%
    10:00 +34°C° 0 mm 1 mps 758 mmHg 44%
    11:00 +37°C° 0 mm 1 mps 757 mmHg 32%
    12:00 +40°C° 0 mm 1 mps 757 mmHg 28%
    13:00 +41°C° 0 mm 1 mps 756 mmHg 23%
    14:00 +42°C° 0 mm 1 mps 755 mmHg 19%
    15:00 +42°C° 0 mm 1 mps 755 mmHg 18%
    16:00 +42°C° 0 mm 1 mps 754 mmHg 17%
    17:00 +41°C° 0 mm 1 mps 754 mmHg 16%
    18:00 +39°C° 0 mm 1 mps 754 mmHg 18%
    19:00 +35°C° 0 mm 1 mps 754 mmHg 20%
    20:00 +32°C° 0 mm 1 mps 755 mmHg 22%
    21:00 +31°C° 0 mm 2 mps 755 mmHg 23%
    22:00 +30°C° 0 mm 2 mps 755 mmHg 24%
    23:00 +29°C° 0 mm 3 mps 756 mmHg 25%

    15 December, Friday

    Time Temperature Precipitation Wind Pressure Humidity
    00:00 +29°C° 0 mm 2 mps 756 mmHg 30%
    01:00 +28°C° 0 mm 2 mps 755 mmHg 34%
    02:00 +27°C° 0 mm 2 mps 755 mmHg 38%
    03:00 +27°C° 0 mm 2 mps 755 mmHg 41%
    04:00 +26°C° 0 mm 2 mps 756 mmHg 45%
    05:00 +26°C° 0 mm 1 mps 756 mmHg 49%
    06:00 +28°C° 0 mm 2 mps 756 mmHg 44%
    07:00 +31°C° 0 mm 2 mps 756 mmHg 39%
    08:00 +35°C° 0 mm 2 mps 757 mmHg 34%
    09:00 +38°C° 0 mm 3 mps 756 mmHg 30%
    10:00 +40°C° 0 mm 3 mps 756 mmHg 26%
    11:00 +43°C° 0 mm 4 mps 755 mmHg 22%
    12:00 +44°C° 0 mm 4 mps 754 mmHg 21%
    13:00 +45°C° 0 mm 4 mps 753 mmHg 19%
    14:00 +47°C° 0 mm 4 mps 752 mmHg 18%
    15:00 +45°C° 0 mm 4 mps 752 mmHg 19%
    16:00 +44°C° 0 mm 4 mps 751 mmHg 21%
    17:00 +44°C° 0 mm 4 mps 751 mmHg 23%
    18:00 +42°C° 0 mm 4 mps 751 mmHg 26%
    19:00 +39°C° 0 mm 3 mps 751 mmHg 29%
    20:00 +37°C° 0 mm 3 mps 751 mmHg 33%
    21:00 +35°C° 0.1 mm 3 mps 752 mmHg 36%
    22:00 +34°C° 0.1 mm 4 mps 752 mmHg 40%
    23:00 +33°C° 0.1 mm 4 mps 752 mmHg 44%

    16 December, Saturday

    Time Temperature Precipitation Wind Pressure Humidity
    00:00 +32°C° 0.1 mm 4 mps 752 mmHg 44%
    01:00 +32°C° 0.1 mm 4 mps 751 mmHg 45%
    02:00 +32°C° 0.1 mm 5 mps 751 mmHg 46%
    03:00 +30°C° 0.1 mm 5 mps 751 mmHg 47%
    04:00 +30°C° 0.1 mm 5 mps 751 mmHg 48%
    05:00 +30°C° 0.1 mm 5 mps 751 mmHg 49%
    06:00 +33°C° 0 mm 6 mps 751 mmHg 43%
    07:00 +36°C° 0 mm 7 mps 751 mmHg 37%
    08:00 +39°C° 0 mm 8 mps 751 mmHg 30%
    09:00 +41°C° 0 mm 8 mps 751 mmHg 28%
    10:00 +44°C° 0 mm 7 mps 750 mmHg 25%
    11:00 +45°C° 0 mm 7 mps 750 mmHg 23%
    12:00 +46°C° 0 mm 6 mps 749 mmHg 22%
    13:00 +46°C° 0 mm 6 mps 748 mmHg 20%
    14:00 +47°C° 0 mm 5 mps 747 mmHg 19%
    15:00 +47°C° 0 mm 5 mps 747 mmHg 19%
    16:00 +47°C° 0 mm 4 mps 746 mmHg 19%
    17:00 +45°C° 0 mm 4 mps 745 mmHg 18%
    18:00 +43°C° 0 mm 4 mps 745 mmHg 20%
    19:00 +42°C° 0 mm 3 mps 746 mmHg 22%
    20:00 +39°C° 0 mm 3 mps 746 mmHg 24%
    21:00 +35°C° 1.2 mm 5 mps 748 mmHg 44%
    22:00 +30°C° 1.2 mm 7 mps 750 mmHg 64%
    23:00 +26°C° 1.2 mm 9 mps 752 mmHg 84%
    Show more